Skip Page Navigation
NASA JPL Caltech
NASA Logo - Jet Propulsion Laboratory + View the NASA Portal
+ Near-Earth Object (NEO) Program
Search JPL
JPL Home Earth Solar System Stars & Galaxies Technology
JPL Solar System Dynamics
BODIES ORBITS EPHEMERIDES TOOLS PHYSICAL DATA DISCOVERY FAQ SITE MAP
JPL Small-Body Database Browser
Search: [ help ]  
8438 Marila (4825 T-1)
Classification: Main-belt Asteroid          SPK-ID: 2008438
Ephemeris | Orbit Diagram | Orbital Elements | Physical Parameters | Discovery Circumstances | Close-Approach Data ]

[ show orbit diagram ]
Orbital Elements at Epoch 2457000.5 (2014-Dec-09.0) TDB
Reference: JPL 16 (heliocentric ecliptic J2000)
 Element Value Uncertainty (1-sigma)   Units 
e .1587520800453486 4.8025e-08  
a 2.268153646006243 1.2612e-08 AU
q 1.90807953684031 1.0824e-07 AU
i 3.155352106386243 5.8301e-06 deg
node 121.5933508838165 9.5077e-05 deg
peri 275.9234169389949 9.7184e-05 deg
M 69.655952464953 2.0448e-05 deg
tp 2456759.085769264743
(2014-Apr-11.58576926)
7.0225e-05 JED
period 1247.691259529043
3.42
1.0407e-05
2.849e-08
d
yr
n .2885329181001769 2.4066e-09 deg/d
Q 2.628227755172175 1.4614e-08 AU
  Orbit Determination Parameters
   # obs. used (total)      1143  
   data-arc span      16107 days (44.10 yr)  
   first obs. used      1971-04-16  
   last obs. used      2015-05-22  
   planetary ephem.      DE431  
   SB-pert. ephem.      SB431-BIG16  
   condition code      0  
   fit RMS      .49555  
   data source      ORB  
   producer      Otto Matic  
   solution date      2015-Jun-04 16:01:38  

Additional Information
 Earth MOID = .918182 AU 
 T_jup = 3.596 
[ show covariance matrix ]

Ephemeris | Orbit Diagram | Orbital Elements | Physical Parameters | Discovery Circumstances | Close-Approach Data ]

Physical Parameter Table
Parameter Symbol Value Units Sigma Reference Notes
absolute magnitude H 14.3 mag n/a MPO337327  

8438 Marila           Discovered 1971 May 13 by C. J. van Houten and I. van Houten-Groeneveld on Palomar Schmidt plates taken by T. Gehrels.
Named for aythya marila, or greater scaup.
NOTE: some special characters may not display properly (any characters within {} are an attempt to place the proper accent above a character)
Reference: 19990202/MPCPages.arcLast Updated: 2010-06-11

[ show close-approach data ]
Alternate Designations
 4825 T-1 = 1986 TH15 = 1991 AX2 
Ephemeris | Orbit Diagram | Orbital Elements | Physical Parameters | Discovery Circumstances | Close-Approach Data ]
ABOUT SSD CREDITS/AWARDS PRIVACY/COPYRIGHT GLOSSARY LINKS
FirstGov 2015-Jul-06 13:34 UT
(server date/time)  
NASA Home Page
Site Manager:   Ryan S. Park
Webmaster  Alan B. Chamberlin